Flag for U.S.A. Weather past 2 weeks in Lafayette, Indiana, U.S.A.

Now
69 °F

Clear.


Feels Like: 69 °F
Forecast: 61 / 83 °F
Wind: No wind

Location: Purdue University Airport

Current Time: Jul 30, 2015 at 11:51:59 PM

Latest Report: Jul 30, 2015 at 10:54 PM


Visibility: 10 mi

Pressure: 30.03 "Hg

Humidity: 84%

Dew point: 64 °F

Location of LafayetteLocation

Historic Weather in Lafayette — Graph

°F

Lafayette temperature yesterday

Maximum temperature yesterday: 86 °F (at 4:54 PM)
Minimum temperature yesterday: 65 °F (at 11:54 PM)
Average temperature yesterday: 77 °F

Past Weeks' High & Low Weather Summary

 TemperatureHumidityPressure
High90 °F (Jul 18, 4:54 PM)100% (Jul 18, 2:54 AM)30.08 "Hg (Jul 18, 2:54 AM)
Low56 °F (Jul 22, 6:03 AM)40% (Jul 30, 4:54 PM)29.75 "Hg (Jul 21, 4:54 AM)
Average74 °F81%29.93 "Hg
* Reported Jul 15 9:54 PM — Jul 30 9:54 PM, Lafayette, Weather by CustomWeather, © 2015

Note: Actual official high and low records may vary slightly from our data, if they occured in-between our weather recording intervals... More about our weather records

Advertising

Lafayette weather history for previous 24 hours

 ConditionsComfort  
Time TempWeatherWind HumidityBarometerVisibility
9:54 PM
Thu, Jul 30
71 °FSunny.3 mph78%30.02 "Hg10 mi
8:54 PM75 °FSunny.No wind69%30.01 "Hg10 mi
7:54 PM80 °FSunny.6 mph52%30.01 "Hg10 mi
6:54 PM82 °FSunny.8 mph46%30.02 "Hg10 mi
4:54 PM84 °FSunny.10 mph40%30.05 "Hg10 mi
3:54 PM84 °FSunny.13 mph41%30.06 "Hg10 mi
2:54 PM83 °FSunny.14 mph41%30.07 "Hg10 mi
1:54 PM83 °FPassing clouds.10 mph41%30.08 "Hg10 mi
12:54 PM82 °FSunny.13 mph46%30.08 "Hg10 mi
11:54 AM80 °FSunny.8 mph51%30.08 "Hg10 mi
10:54 AM77 °FSunny.9 mph62%30.07 "Hg10 mi
9:54 AM74 °FSunny.7 mph71%30.06 "Hg10 mi
8:54 AM68 °FSunny.No wind82%30.07 "Hg10 mi
7:54 AM63 °FSunny.No wind97%30.06 "Hg10 mi
6:54 AM60 °FClear.3 mph96%30.05 "Hg10 mi
5:54 AM61 °FClear.3 mph97%30.04 "Hg10 mi
4:54 AM61 °FClear.3 mph97%30.03 "Hg10 mi
3:54 AM62 °FClear.3 mph93%30.02 "Hg10 mi
2:54 AM62 °FClear.3 mph96%30.02 "Hg10 mi
1:54 AM64 °FClear.No wind90%30.03 "Hg10 mi
12:54 AM64 °FClear.No wind94%30.03 "Hg10 mi
11:54 PM
Wed, Jul 29
65 °FClear.No wind94%30.02 "Hg10 mi
Weather by CustomWeather, © 2015

See weather overviewHow to use our weather pages